Regional Weather Roundup
Issued by NWS

Home | Current Version | Previous Version | Graphics & Text | Print | Product List | Glossary On
Versions: 1 2 3 4 5 6 7 8 9 10 11 12 13 14 15 16 17 18 19 20 21 22 23 24 25 26 27 28 29 30 31 32 33 34 35 36 37 38 39 40 41 42 43 44 45 46 47 48 49 50
000
ASUS45 KBOI 060410
RWRID
WEATHER ROUNDUP FOR IDAHO
NATIONAL WEATHER SERVICE BOISE ID
900 PM MST THU MAR 05 2015

NOTE: "FAIR" INDICATES FEW OR NO CLOUDS BELOW 12000 FEET
WITH NO SIGNIFICANT WEATHER AND/OR OBSTRUCTIONS TO VISIBILITY

IDZ012-014-060500-
SOUTHWEST IDAHO


CITY           SKY/WX    TMP DP  RH WIND       PRES   REMARKS
BOISE          PTCLDY    41  22  46 CALM      30.35R
CALDWELL       PTCLDY    43  19  39 NW3       30.37R
MOUNTAIN HOME  CLOUDY    38  20  47 NW1       30.35R
$$

IDZ016-017-060500-
SOUTHCENTRAL IDAHO


CITY           SKY/WX    TMP DP  RH WIND       PRES   REMARKS
BURLEY         MOCLDY    39  15  37 SW8       30.33F WCI  33
JEROME         MOCLDY    43  15  32 S5        30.35S
TWIN FALLS     PTCLDY    43  18  36 S13       30.34F
$$

IDZ019>023-060500-
SOUTHEAST IDAHO


CITY           SKY/WX    TMP DP  RH WIND       PRES   REMARKS
IDAHO FALLS    MOCLDY    32  18  56 CALM      30.35S
POCATELLO      CLEAR     41  18  39 S13       30.35S
REXBURG        MOCLDY    31  23  72 N5        30.35S WCI  26
$$

IDZ006-010-011-018-031-032-060500-
CENTRAL IDAHO MOUNTAINS


CITY           SKY/WX    TMP DP  RH WIND       PRES   REMARKS
MCCALL         CLEAR     29  19  66 N3        30.34R
HAILEY         PTCLDY    34  21  60 W8        30.35S WCI  27
STANLEY          N/A     25   9  50 S3        30.37R
SALMON         CLEAR     30  12  47 CALM      30.30R
CHALLIS        CLEAR     37   9  31 SE3       30.30R
$$

IDZ002-004-006-007-026-060500-
NORTHERN IDAHO


CITY           SKY/WX    TMP DP  RH WIND       PRES   REMARKS
LEWISTON       PTCLDY    41  29  62 S7        30.33R
LOWELL           N/A     34  27  75 CALM      30.39R
COEUR D`ALENE  PTCLDY    34  21  60 CALM      30.31R
MULLAN PASS    CLEAR     29  15  56 W3        30.27R
$$



USA.gov is the U.S. government's official web portal to all federal, state and local government web resources and services.